Temperature
22 21 20 19 19 20 23 24 25 25 26 26 26 26 25 24 23 23 24 24 24 23 21 20 20 20 20 20 21 21 21 21 20 20 20 20 20 20 20 20 20 20 19 19 19 19 19 19 19
22 21 20 20 20 22 24 25 25 26 26 27 27 26 25 24 24 24 24 24 24 23 21 21 20 20 20 20 21 20 20 20 20 20 20 20 20 20 20 20 20 20 19 19 20 19 19 19 19
22 21 21 19 21 23 25 26 25 26 27 27 26 26 25 25 25 24 25 24 23 22 22 21 21 20 20 21 21 21 21 21 20 20 20 20 20 20 20 20 20 19 19 19 19 19 19 19 19
22 22 21 20 23 23 24 25 25 26 27 27 26 25 25 25 25 25 25 24 23 23 22 21 21 20 20 21 21 21 21 21 20 20 20 20 20 20 20 19 19 19 19 19 19 19 19 19 19
22 22 21 21 23 24 24 25 26 26 26 26 26 24 24 25 25 25 25 24 24 23 22 21 21 21 21 21 21 21 21 21 21 20 20 20 20 20 20 20 20 20 20 20 20 20 19 19 19
23 21 21 22 24 25 25 26 26 26 26 26 26 24 24 25 25 25 25 24 24 23 22 21 21 21 21 21 21 21 21 21 21 20 20 20 20 20 20 20 20 20 20 20 20 20 20 19 19
23 20 22 23 24 25 26 26 25 25 25 26 26 24 24 25 24 24 24 24 23 23 22 21 21 21 20 20 20 20 20 20 20 20 20 20 20 20 20 20 19 19 19 19 19 19 19 19 19
24 19 23 22 24 25 26 26 27 26 26 27 27 25 25 26 24 23 23 23 23 22 22 21 21 20 20 20 20 20 20 20 20 20 20 20 20 19 19 19 19 19 19 19 19 19 19 19 19
24 19 21 23 25 26 26 26 27 27 27 27 27 27 26 26 24 23 22 21 21 21 20 20 20 19 19 19 19 19 19 19 19 19 20 19 19 19 19 19 19 19 19 19 19 19 19 19 18
23 19 21 23 25 26 26 26 27 26 26 27 27 27 26 25 24 22 21 20 20 19 19 19 18 18 18 18 18 19 19 19 19 19 19 19 19 19 19 19 19 19 19 18 18 18 18 18 18
22 21 22 24 26 26 26 27 27 26 25 27 27 26 25 24 22 21 20 20 20 19 18 18 18 18 18 18 18 18 19 18 18 19 19 19 19 19 19 19 19 18 18 18 18 18 18 18 18
23 22 24 25 27 26 26 27 26 25 26 26 26 25 24 22 21 20 20 19 19 19 18 18 18 18 18 18 18 18 18 18 18 19 19 19 18 18 18 18 18 18 18 18 18 17 17 17 17
23 23 25 26 26 25 25 25 24 23 23 23 23 22 21 20 20 19 19 19 19 18 18 18 19 19 19 19 19 19 18 18 18 18 18 18 18 18 18 18 18 18 17 17 17 17 17 17 17
24 24 24 25 25 25 23 21 20 19 19 19 19 18 18 18 19 19 19 18 19 19 19 19 19 20 20 20 20 19 19 18 18 18 17 17 17 17 17 17 17 17 17 17 17 17 17 17 17
24 22 22 23 23 24 23 18 18 17 17 16 16 16 16 17 18 18 18 18 18 18 19 19 18 19 19 19 19 18 18 18 18 18 17 17 17 17 17 17 17 17 17 17 17 17 17 17 17
23 22 22 22 21 21 20 17 17 17 16 15 15 15 15 15 16 17 17 18 18 18 18 18 18 18 18 18 17 17 17 17 17 17 17 17 17 17 17 17 17 17 17 17 17 17 17 17 17
21 21 22 22 20 19 17 17 17 16 16 15 14 14 14 15 16 16 17 17 18 18 18 18 17 17 17 17 16 16 16 16 16 16 16 17 17 17 17 17 17 17 16 16 16 16 16 16 16
22 22 23 21 19 18 17 16 17 16 16 15 14 14 14 15 15 16 17 17 17 17 17 17 17 16 16 16 15 15 15 15 16 16 16 17 17 17 17 17 17 16 16 16 16 16 16 16 16
23 23 23 22 19 17 17 16 16 16 15 14 14 14 14 15 15 16 16 17 17 17 16 16 16 16 16 15 15 15 15 15 15 16 16 16 17 17 17 17 17 16 16 16 15 15 15 15 15
22 23 23 21 19 18 17 16 16 16 15 14 13 14 14 15 15 16 16 16 16 16 16 16 16 16 15 15 15 15 15 15 16 16 17 17 17 17 17 17 17 17 16 16 16 16 15 15 15
24 24 24 22 19 17 17 16 16 16 15 14 14 14 14 15 15 15 15 16 16 16 16 16 16 16 16 16 16 16 16 16 16 17 17 17 17 17 17 17 17 17 17 16 16 16 16 16 15
23 24 24 23 20 17 18 16 16 15 15 14 14 14 14 15 15 15 15 16 16 16 16 16 16 16 16 16 16 16 16 16 16 16 17 17 17 17 17 17 17 17 17 17 17 17 16 16 15
24 22 21 21 19 17 17 16 16 15 15 14 14 14 14 14 15 15 15 15 16 16 16 16 16 16 16 15 15 15 15 15 15 15 16 17 17 17 17 17 17 17 16 16 16 17 17 16 16
23 21 20 17 17 18 17 17 17 15 15 15 14 14 14 15 15 15 15 15 15 15 15 15 15 15 15 15 15 15 15 15 14 15 15 15 15 16 16 16 16 16 16 16 16 16 16 16 16
21 20 19 19 17 18 17 17 16 16 16 15 15 15 15 15 15 15 15 15 15 15 15 15 15 15 14 14 14 14 14 14 14 14 14 14 14 14 14 15 15 15 16 16 16 15 15 16 16
21 20 19 19 18 17 17 16 16 16 15 15 15 15 15 15 15 15 15 15 14 14 14 14 14 14 14 14 14 13 13 13 13 13 13 13 13 13 13 13 14 14 14 15 15 15 15 15 15
22 18 18 16 17 17 16 16 16 15 14 15 15 15 15 15 15 15 15 14 14 14 14 14 14 14 13 13 13 13 13 13 13 13 13 13 13 13 13 13 13 13 13 13 14 14 14 14 14
20 18 16 16 17 17 17 16 15 14 14 14 14 15 15 15 15 15 14 14 13 13 13 13 13 13 13 13 13 13 13 13 13 13 12 12 12 12 12 12 12 12 12 12 12 12 13 13 13
19 18 15 14 15 16 17 15 14 13 13 13 14 15 15 14 14 14 14 13 13 13 13 13 13 13 13 13 13 12 12 12 12 12 12 12 12 11 11 11 11 11 11 12 12 12 12 12 12
18 17 16 16 16 14 14 14 13 13 13 14 14 14 14 14 13 13 13 13 12 12 12 12 12 12 12 12 12 12 12 12 12 12 12 12 11 11 11 11 11 11 11 11 11 11 11 11 11
Wind_Speed
15 12 4 3 2 2 3 3 3 4 2 1 2 2 3 4 5 4 2 10 15 15 17 21 22 20 19 18 18 17 17 17 17 16 16 16 16 16 16 15 14 13 12 11 11 11 11 11 10
8 5 2 3 2 3 4 3 3 4 3 2 2 3 2 1 1 3 5 8 15 14 15 18 22 21 20 18 18 17 16 16 16 15 15 15 15 15 15 15 14 13 12 12 11 10 10 10 10
5 2 3 3 0 3 5 4 4 4 3 3 2 3 3 3 4 7 7 12 13 12 14 19 24 22 20 19 18 17 16 15 15 14 14 13 13 13 13 14 14 12 11 10 10 9 9 8 9
4 3 3 3 4 5 6 6 3 4 3 0 3 4 2 1 7 8 13 15 16 13 13 19 24 23 21 19 18 17 16 15 14 14 13 12 12 12 12 11 11 11 10 9 8 8 8 8 8
3 4 4 3 6 6 6 6 4 3 3 1 2 3 1 2 8 13 17 17 17 13 12 17 24 23 21 20 18 17 16 15 14 13 13 12 11 11 11 10 10 9 9 9 9 9 9 8 9
4 4 3 3 7 7 6 4 3 3 2 1 2 3 1 4 10 13 15 15 14 14 10 13 22 22 21 20 19 18 16 15 14 14 13 13 12 11 11 11 11 10 10 10 10 10 10 10 10
4 4 3 4 5 7 5 3 2 3 4 3 2 2 1 4 6 11 11 12 11 12 10 8 15 19 20 19 18 17 16 16 15 15 14 14 13 13 12 12 12 12 12 12 11 11 11 11 11
5 4 2 3 4 6 5 3 3 3 5 2 3 4 4 6 10 9 8 8 9 8 9 6 7 10 12 14 17 16 16 16 16 16 15 15 15 14 14 14 13 14 14 14 14 13 13 13 12
4 4 3 5 4 6 5 5 5 3 3 3 3 3 2 14 16 12 9 7 6 6 5 3 3 3 4 6 10 14 15 17 17 16 17 16 13 13 14 15 15 16 16 16 16 16 15 15 14
5 4 8 6 4 6 8 6 5 4 5 6 5 3 10 17 16 13 10 8 6 5 4 3 3 2 2 3 5 7 10 12 14 12 13 13 12 13 14 13 17 18 18 18 18 19 17 16 13
5 7 6 7 7 6 6 6 3 3 7 8 6 4 12 13 12 11 10 11 9 8 7 5 5 4 2 2 3 5 6 7 9 11 12 11 10 10 12 10 12 15 16 16 16 17 15 14 12
3 8 7 7 5 4 5 4 3 2 6 4 5 7 12 13 11 11 12 12 12 12 10 8 6 4 1 2 3 4 5 5 6 10 12 10 6 7 8 8 11 11 12 11 11 11 12 13 14
5 6 6 8 10 8 4 3 3 8 9 12 17 18 16 16 14 13 13 14 14 12 9 6 5 4 2 3 4 5 5 7 9 11 13 14 8 9 8 7 9 10 12 9 7 7 7 8 10
5 7 10 11 9 4 5 10 11 12 12 20 23 22 20 19 17 16 15 13 11 9 6 4 3 5 6 5 5 5 5 6 8 9 13 16 13 7 9 9 8 7 9 9 7 6 6 5 5
4 7 10 7 8 5 8 16 16 14 16 23 22 21 20 17 15 14 10 8 5 2 1 1 4 4 3 3 5 4 4 5 5 8 12 14 15 11 9 8 7 6 7 7 5 4 3 3 4
4 5 7 9 13 9 11 11 15 12 15 20 18 17 16 15 13 10 7 5 3 3 3 4 4 3 3 2 4 3 3 3 4 7 9 13 15 13 7 7 6 5 5 4 4 3 3 3 3
5 5 5 7 14 8 10 9 11 11 14 16 15 14 13 12 11 9 7 6 6 6 6 6 5 5 4 3 3 2 3 3 4 5 7 10 12 11 6 6 4 4 4 3 3 2 2 3 3
5 5 3 3 6 12 15 11 10 11 13 14 13 12 12 12 9 8 7 7 6 6 5 6 6 6 6 5 3 3 5 5 4 4 6 8 8 9 6 5 5 5 4 3 3 3 2 2 3
5 4 3 2 5 9 14 13 10 9 11 12 11 10 10 8 7 8 8 8 8 7 6 6 7 7 6 4 4 3 2 3 5 4 7 8 8 8 7 5 5 6 5 5 5 3 3 2 1
5 4 1 5 7 7 11 13 9 10 9 9 9 9 8 8 9 10 10 10 9 8 6 6 7 7 6 4 3 2 2 3 4 5 5 6 6 7 7 8 7 7 5 5 5 4 3 2 3
2 3 3 4 5 6 8 7 5 6 7 8 8 7 7 7 7 8 8 7 6 6 6 5 6 6 6 6 3 3 2 2 3 4 4 4 4 5 5 6 6 7 7 7 7 6 6 4 3
4 3 2 3 6 3 3 3 1 1 4 4 4 4 4 5 5 5 6 6 6 6 5 5 5 5 4 5 4 3 2 2 2 3 4 5 4 3 2 3 5 6 6 6 7 7 5 5 4
3 3 5 4 5 5 5 6 1 1 1 2 1 1 1 3 4 5 6 7 7 6 6 5 5 4 4 3 3 3 2 1 2 3 4 5 6 6 5 3 1 4 6 7 7 7 7 6 5
2 6 6 6 5 4 4 2 2 2 2 2 2 1 1 3 4 6 7 8 8 8 7 6 6 5 4 3 2 0 0 1 2 3 3 3 3 3 5 5 3 2 4 6 7 8 9 8 6
7 7 6 7 6 3 2 2 1 1 3 4 3 1 2 4 5 7 8 9 9 9 9 8 8 8 7 6 5 4 4 3 3 3 2 3 2 2 3 3 3 3 4 6 7 8 9 9 8
3 7 6 3 4 4 3 1 1 2 5 5 4 1 1 4 6 7 8 9 9 10 10 9 9 10 9 8 7 7 6 4 4 5 4 4 3 3 4 3 3 3 4 5 6 8 9 8 10
4 4 4 6 2 1 3 3 3 5 6 5 3 3 5 7 8 8 8 8 8 9 10 10 10 10 10 10 9 8 8 7 7 7 6 5 5 5 4 3 3 3 4 4 4 6 8 8 10
6 6 5 4 2 2 4 3 4 5 4 4 5 6 7 9 9 9 8 8 8 8 9 10 10 11 11 11 10 10 9 10 9 7 8 8 8 7 6 5 5 4 4 3 3 5 6 8 9
8 7 6 5 4 3 2 2 4 1 2 3 5 7 9 10 10 10 9 8 9 10 11 11 11 11 11 12 12 12 12 11 9 9 10 9 8 8 7 7 6 5 5 4 3 4 5 7 8
5 5 3 3 2 2 1 3 3 1 1 3 7 9 10 10 10 10 10 10 10 11 12 12 12 12 13 12 12 12 13 12 11 12 12 11 11 10 9 8 7 7 7 5 5 5 4 5 7
Wind_Direction
141 141 143 134 74 32 288 262 254 297 296 228 143 152 150 169 190 228 13 138 137 148 159 168 166 165 161 160 162 162 159 157 155 154 155 157 160 163 166 166 166 166 166 163 159 159 158 154 154
139 156 146 82 66 359 298 254 259 259 229 205 176 134 108 205 143 117 126 140 142 148 158 167 168 168 166 165 166 167 165 163 161 160 161 163 165 168 171 172 171 170 167 165 164 162 163 163 162
164 179 106 74 8 232 276 261 257 281 247 204 139 105 140 198 161 164 161 144 140 149 158 169 172 172 171 170 171 172 171 170 167 166 168 170 171 171 173 175 176 175 171 170 171 170 171 173 171
139 67 60 52 278 249 243 263 280 305 290 243 127 111 121 193 163 160 147 147 146 152 160 173 174 176 175 174 175 176 176 174 174 174 175 177 178 179 179 179 180 181 182 186 191 190 188 188 187
75 87 50 341 280 270 259 270 263 274 295 320 127 137 155 47 120 138 149 153 154 154 160 175 175 178 178 179 180 181 180 179 179 181 182 184 184 186 188 190 192 193 194 198 201 201 199 198 198
68 73 78 287 280 284 287 292 321 291 285 285 147 150 181 127 136 152 155 155 156 157 157 173 176 180 182 184 185 186 185 184 185 187 190 191 193 194 197 200 203 205 206 208 211 211 210 209 209
124 117 184 244 282 300 306 334 308 300 294 270 163 172 215 162 158 149 149 146 147 155 156 166 176 183 187 189 191 192 192 192 193 195 197 200 202 205 208 212 215 217 219 221 224 226 227 227 227
140 118 208 262 271 286 308 323 286 244 265 250 160 190 228 178 136 126 120 123 135 148 159 158 163 175 184 192 198 200 202 202 204 205 206 208 211 214 218 220 225 228 230 233 235 238 239 239 239
102 81 225 240 251 281 300 301 291 250 253 262 216 200 165 132 129 123 111 108 122 142 147 138 123 137 169 195 210 212 215 215 213 215 216 216 217 221 225 228 230 235 238 240 241 243 245 245 246
103 161 229 233 240 281 297 277 274 288 287 277 270 109 108 130 137 135 125 122 122 123 116 82 81 73 67 217 236 241 237 232 223 217 221 220 215 221 228 234 238 240 243 245 246 246 246 247 244
164 205 240 258 260 269 284 288 279 233 271 260 258 126 121 128 128 125 119 118 115 107 106 91 79 57 33 300 281 263 249 245 236 223 219 221 219 223 231 233 243 248 249 248 249 249 241 236 232
228 250 245 260 259 275 261 288 312 264 274 337 23 92 111 114 114 116 118 115 112 107 101 96 95 89 65 286 285 277 263 249 241 232 221 218 222 223 226 230 233 235 241 244 244 241 235 232 230
244 259 259 250 263 248 252 324 3 8 1 36 57 71 88 93 91 91 99 103 103 103 108 119 128 133 167 234 246 245 246 248 247 241 230 222 226 231 229 230 231 230 231 235 238 233 228 229 232
261 272 282 284 276 243 112 40 29 13 37 63 68 69 71 75 81 83 86 95 104 115 131 157 175 191 194 216 242 241 241 245 250 249 242 234 231 226 230 231 230 227 226 227 227 225 222 225 227
303 308 318 336 342 358 98 45 24 22 65 73 73 73 72 71 71 75 80 87 92 99 116 218 235 244 247 240 255 249 243 246 245 252 254 248 238 232 229 230 228 223 220 217 213 211 198 199 210
2 7 345 346 2 18 76 56 24 30 66 73 73 71 70 65 61 59 57 55 35 3 332 309 307 295 291 283 268 268 263 260 254 260 260 258 250 237 225 225 223 206 194 185 182 176 178 193 201
18 355 332 353 14 39 74 71 36 42 63 70 68 65 63 57 46 35 28 21 17 1 332 320 327 336 332 311 286 307 338 292 268 269 261 256 251 236 212 213 204 179 170 175 175 166 172 184 196
298 313 329 57 38 65 81 76 49 43 60 66 63 60 55 49 31 15 12 13 14 1 348 334 338 346 337 337 354 10 4 328 287 264 260 257 245 222 198 197 185 169 166 174 174 167 169 182 190
246 263 281 126 130 73 80 74 50 41 50 55 54 54 52 39 18 17 14 13 12 7 1 350 350 347 345 341 346 355 6 301 284 269 257 249 239 218 196 191 179 175 179 182 173 158 169 181 147
221 254 254 93 118 104 97 78 57 44 45 44 46 44 40 28 19 14 7 7 4 358 358 359 355 349 341 323 296 289 283 262 267 274 263 249 235 221 208 193 184 178 173 173 175 162 160 176 170
277 219 234 158 103 107 117 74 48 52 55 49 40 31 25 27 13 358 350 345 344 350 354 354 346 349 353 345 323 296 281 287 313 318 316 304 265 229 213 202 190 182 178 184 187 179 169 178 191
304 298 261 161 138 156 177 122 76 72 58 55 42 28 10 358 342 329 325 327 327 322 328 329 327 338 351 6 24 26 23 4 345 327 332 338 344 328 256 208 200 195 191 190 192 189 180 165 179
246 40 60 74 114 85 36 106 201 206 98 86 86 64 345 317 304 302 304 303 301 301 302 297 303 316 330 356 26 55 51 337 298 318 346 360 7 19 16 8 238 215 208 207 196 189 190 180 175
123 73 53 54 69 57 335 103 187 211 172 132 120 117 273 281 284 287 287 287 287 288 285 280 285 288 290 298 304 223 181 293 324 333 339 342 344 0 16 17 3 279 232 219 212 202 197 195 186
59 69 23 4 11 285 319 78 222 170 107 116 123 143 254 268 273 278 280 279 279 282 282 281 280 280 277 274 268 257 248 248 254 266 283 301 312 311 328 346 340 318 267 236 216 209 209 201 198
49 113 142 215 239 283 357 2 296 84 86 91 103 125 294 294 286 283 284 286 290 294 293 287 280 277 274 267 263 258 254 252 254 254 252 256 255 263 275 296 302 307 297 266 226 216 215 207 207
72 67 138 131 131 19 323 322 2 82 72 74 59 12 334 317 309 303 305 307 304 302 298 289 281 277 275 268 261 257 249 241 243 246 246 247 248 253 254 270 284 295 306 299 259 232 221 213 213
76 120 78 85 106 333 329 11 354 0 37 40 16 347 326 318 315 314 311 306 305 302 300 299 284 274 273 272 266 262 251 243 240 238 240 242 245 246 255 259 261 268 274 284 279 253 233 223 222
15 39 73 87 111 130 304 329 357 25 50 18 334 316 309 307 308 306 300 295 297 300 299 295 289 281 277 274 269 264 262 255 245 240 242 242 243 241 243 247 251 257 260 257 260 267 261 241 234
68 52 79 97 46 92 177 267 323 91 48 317 301 298 299 302 304 301 295 295 299 300 299 296 291 284 277 273 270 266 264 261 254 249 247 241 238 237 236 238 243 249 251 243 238 245 254 260 253
Height
1506 1507 1508 1511 1512 1516 1512 1500 1493 1490 1487 1485 1486 1487 1487 1490 1494 1496 1487 1486 1490 1494 1499 1503 1508 1512 1516 1518 1520 1523 1525 1527 1529 1531 1533 1534 1535 1537 1539 1540 1542 1543 1544 1545 1546 1546 1547 1548 1548
1507 1508 1510 1511 1514 1519 1510 1495 1492 1488 1485 1484 1484 1485 1486 1486 1487 1487 1486 1488 1492 1496 1500 1504 1508 1513 1516 1518 1521 1523 1525 1528 1530 1531 1533 1534 1536 1537 1539 1541 1542 1543 1544 1545 1546 1547 1548 1548 1549
1507 1508 1510 1511 1514 1516 1504 1491 1488 1485 1484 1484 1483 1484 1485 1485 1485 1486 1487 1490 1493 1497 1501 1505 1509 1512 1516 1519 1521 1523 1525 1528 1530 1531 1533 1535 1536 1538 1539 1541 1542 1544 1545 1546 1546 1547 1548 1549 1549
1507 1509 1510 1514 1512 1503 1495 1487 1486 1485 1484 1483 1483 1484 1484 1485 1485 1486 1488 1490 1493 1497 1501 1505 1508 1512 1515 1518 1521 1523 1525 1527 1529 1531 1533 1535 1536 1538 1539 1541 1542 1543 1544 1545 1546 1547 1548 1549 1549
1507 1508 1513 1518 1510 1497 1489 1485 1485 1485 1484 1483 1482 1482 1483 1485 1485 1487 1489 1491 1493 1497 1501 1505 1509 1512 1515 1518 1521 1523 1525 1527 1529 1531 1533 1535 1536 1538 1540 1541 1543 1544 1545 1546 1547 1547 1548 1549 1550
1507 1508 1519 1520 1508 1495 1488 1485 1484 1484 1483 1483 1482 1482 1482 1484 1485 1487 1490 1492 1495 1498 1502 1506 1509 1512 1515 1518 1521 1523 1525 1527 1529 1531 1533 1535 1537 1538 1540 1541 1543 1544 1545 1546 1546 1547 1548 1549 1550
1507 1511 1516 1512 1507 1498 1489 1486 1485 1485 1484 1483 1483 1483 1482 1483 1486 1488 1491 1493 1495 1499 1502 1506 1509 1513 1516 1519 1521 1524 1526 1528 1530 1531 1533 1535 1536 1538 1539 1541 1542 1543 1544 1544 1545 1546 1547 1548 1548
1505 1509 1512 1512 1507 1499 1489 1487 1485 1484 1482 1482 1482 1482 1481 1483 1485 1489 1491 1494 1496 1499 1503 1507 1510 1514 1517 1520 1522 1525 1526 1528 1529 1531 1532 1533 1535 1536 1537 1539 1540 1541 1542 1543 1543 1544 1545 1545 1546
1504 1514 1518 1509 1502 1496 1489 1487 1485 1483 1482 1480 1480 1481 1482 1483 1484 1488 1491 1495 1498 1501 1505 1509 1513 1516 1519 1521 1524 1525 1527 1528 1529 1530 1531 1532 1533 1534 1535 1536 1537 1538 1539 1540 1541 1542 1542 1543 1543
1504 1516 1510 1500 1495 1492 1489 1487 1484 1483 1481 1478 1478 1480 1480 1482 1484 1487 1492 1496 1500 1504 1508 1511 1514 1517 1519 1521 1523 1524 1526 1527 1527 1528 1529 1529 1530 1531 1532 1533 1534 1535 1536 1537 1538 1539 1540 1540 1541
1502 1506 1499 1495 1492 1491 1488 1486 1484 1483 1481 1477 1477 1479 1480 1483 1487 1490 1494 1498 1501 1504 1508 1511 1514 1517 1519 1521 1521 1521 1522 1523 1524 1525 1526 1527 1528 1528 1529 1529 1530 1532 1533 1534 1535 1536 1536 1537 1537
1501 1497 1495 1492 1490 1489 1487 1485 1484 1484 1483 1480 1479 1479 1480 1484 1488 1492 1496 1499 1503 1506 1509 1511 1513 1515 1517 1518 1518 1518 1519 1519 1520 1521 1522 1523 1524 1525 1525 1526 1527 1528 1529 1530 1531 1532 1533 1533 1533
1498 1495 1491 1488 1486 1485 1485 1487 1488 1488 1486 1482 1480 1480 1483 1486 1490 1494 1498 1501 1504 1507 1510 1513 1513 1513 1513 1513 1513 1514 1514 1514 1515 1516 1517 1518 1520 1521 1521 1521 1522 1523 1525 1526 1526 1527 1528 1529 1529
1495 1492 1488 1484 1480 1480 1485 1492 1493 1496 1489 1484 1483 1485 1488 1491 1494 1497 1500 1502 1505 1507 1509 1509 1510 1509 1508 1506 1506 1505 1505 1507 1508 1510 1512 1513 1515 1516 1516 1517 1517 1518 1519 1520 1521 1522 1522 1523 1524
1493 1492 1487 1483 1481 1480 1483 1500 1505 1503 1494 1489 1490 1491 1493 1495 1496 1498 1501 1502 1504 1505 1505 1505 1505 1505 1502 1498 1495 1495 1496 1497 1500 1503 1506 1508 1510 1511 1511 1512 1512 1513 1513 1514 1515 1516 1516 1517 1518
1494 1497 1498 1490 1486 1485 1491 1515 1512 1508 1500 1496 1496 1497 1497 1498 1498 1500 1501 1501 1502 1503 1502 1502 1501 1499 1496 1492 1489 1487 1487 1489 1492 1496 1499 1503 1505 1506 1507 1507 1507 1508 1508 1509 1509 1510 1511 1512 1513
1503 1507 1504 1498 1494 1493 1499 1515 1515 1512 1506 1502 1501 1501 1500 1500 1501 1501 1501 1501 1501 1500 1499 1499 1498 1496 1492 1488 1484 1482 1481 1483 1486 1490 1494 1498 1501 1502 1503 1503 1503 1503 1504 1505 1505 1506 1507 1508 1509
1508 1506 1503 1504 1505 1502 1508 1517 1517 1514 1510 1507 1506 1505 1503 1503 1503 1503 1503 1502 1501 1501 1499 1498 1496 1494 1490 1486 1482 1480 1479 1479 1482 1486 1491 1495 1498 1499 1500 1500 1500 1500 1501 1502 1502 1503 1504 1505 1506
1500 1502 1503 1501 1504 1509 1515 1519 1519 1517 1513 1510 1509 1508 1507 1507 1507 1506 1506 1505 1503 1501 1499 1497 1495 1493 1490 1487 1484 1483 1482 1482 1482 1486 1490 1493 1495 1497 1497 1497 1497 1497 1498 1499 1499 1500 1501 1501 1502
1498 1501 1501 1504 1505 1510 1518 1521 1520 1519 1517 1515 1514 1512 1511 1511 1510 1509 1509 1507 1505 1503 1500 1498 1495 1493 1491 1489 1487 1486 1486 1486 1487 1487 1489 1491 1493 1494 1494 1494 1494 1494 1495 1495 1496 1496 1497 1497 1498
1493 1496 1496 1501 1508 1512 1516 1525 1524 1522 1521 1520 1518 1517 1516 1515 1514 1513 1512 1510 1508 1505 1502 1499 1497 1494 1492 1490 1488 1487 1487 1486 1485 1485 1485 1487 1488 1489 1489 1490 1491 1491 1492 1492 1492 1493 1493 1494 1495
1496 1488 1489 1493 1508 1518 1516 1533 1528 1525 1525 1523 1522 1521 1520 1519 1518 1517 1515 1513 1510 1507 1504 1501 1498 1495 1492 1489 1487 1486 1484 1483 1482 1482 1482 1482 1482 1483 1484 1485 1486 1487 1488 1489 1489 1490 1490 1491 1491
1488 1487 1491 1496 1505 1518 1520 1529 1532 1525 1526 1526 1525 1524 1522 1521 1520 1519 1517 1514 1511 1508 1505 1502 1499 1495 1492 1489 1487 1484 1482 1481 1480 1479 1478 1477 1477 1477 1478 1479 1480 1482 1483 1485 1486 1487 1487 1488 1488
1484 1491 1497 1505 1513 1527 1526 1526 1530 1527 1525 1525 1525 1525 1524 1523 1521 1519 1517 1514 1510 1507 1504 1500 1497 1494 1491 1488 1486 1483 1481 1478 1477 1475 1474 1473 1472 1472 1472 1472 1473 1475 1477 1479 1481 1482 1483 1484 1484
1489 1504 1523 1525 1533 1532 1524 1527 1529 1522 1522 1524 1525 1525 1524 1523 1521 1519 1516 1512 1509 1505 1502 1498 1495 1492 1489 1486 1484 1481 1478 1476 1474 1472 1470 1468 1467 1467 1466 1466 1467 1467 1469 1471 1474 1476 1478 1479 1480
1495 1504 1526 1533 1536 1533 1526 1529 1528 1522 1523 1524 1524 1524 1524 1522 1520 1517 1514 1510 1506 1502 1499 1495 1491 1488 1486 1483 1480 1477 1475 1472 1470 1468 1466 1465 1463 1462 1462 1461 1461 1461 1462 1463 1465 1468 1471 1473 1475
1497 1508 1510 1525 1528 1536 1532 1528 1524 1523 1524 1525 1525 1524 1523 1520 1518 1514 1511 1507 1503 1499 1495 1491 1487 1484 1481 1478 1476 1473 1470 1468 1466 1464 1462 1461 1459 1458 1457 1456 1456 1455 1455 1456 1457 1459 1463 1466 1468
1498 1505 1516 1526 1534 1539 1532 1531 1535 1529 1528 1526 1524 1523 1520 1518 1514 1511 1507 1504 1500 1497 1493 1488 1484 1480 1476 1473 1470 1467 1465 1463 1461 1459 1457 1456 1455 1454 1453 1452 1451 1450 1450 1450 1450 1452 1454 1457 1460
1507 1512 1521 1531 1532 1539 1541 1542 1532 1530 1528 1526 1524 1521 1518 1515 1511 1507 1504 1501 1498 1494 1489 1484 1480 1475 1471 1467 1464 1461 1458 1456 1454 1452 1451 1450 1449 1449 1448 1447 1446 1445 1445 1445 1445 1446 1447 1449 1451
1510 1516 1520 1529 1534 1538 1544 1545 1531 1529 1527 1525 1522 1519 1516 1512 1508 1504 1501 1498 1493 1489 1484 1479 1475 1470 1465 1461 1457 1453 1450 1448 1446 1444 1443 1443 1442 1442 1441 1441 1441 1441 1441 1440 1440 1440 1441 1442 1444